Regional Weather Roundup
Issued by NWS

Home | Current Version | Previous Version | Graphics & Text | Print | Product List | Glossary On
Versions: 1 2 3 4 5 6 7 8 9 10 11 12 13 14 15 16 17 18 19 20 21 22 23 24 25 26 27 28 29 30 31 32 33 34 35 36 37 38 39 40 41 42 43 44 45 46 47 48 49 50
000
ASUS43 KDTX 300410
RWRMI
MICHIGAN HOURLY REGIONAL WEATHER ROUNDUP
NATIONAL WEATHER SERVICE DETROIT/PONTIAC MI
1200 AM EDT SAT APR 30 2016

NOTE: "FAIR" INDICATES FEW OR NO CLOUDS BELOW 12,000 FEET WITH NO
SIGNIFICANT WEATHER AND/OR OBSTRUCTION TO VISIBILITY.

MIZ047>049-052>055-059>063-066>070-074>076-081>083-300500-
SOUTHEAST LOWER MICHIGAN

CITY           SKY/WX    TMP DP  RH WIND       PRES   REMARKS
ADRIAN         CLOUDY    47  40  76 S5        30.17S
ALMA           CLEAR     37  37  97 CALM      30.16F
ANN ARBOR      CLOUDY    48  38  68 SE5       30.15F
BAD AXE        CLEAR     35  29  80 CALM      30.19S
CARO           CLEAR     34  32  92 CALM      30.17F
DETROIT CITY   CLOUDY    45  30  55 E6        30.17F
DETROIT        MOCLDY    48  35  60 NE7       30.16F
FLINT          CLEAR     43  37  79 E3        30.17F
GROSSE ILE     CLOUDY    46  43  87 CALM      30.15F
HILLSDALE      CLOUDY    47  40  76 E6        30.14S
HOWELL         CLOUDY    46  37  69 E3        30.15F

CITY           SKY/WX    TMP DP  RH WIND       PRES   REMARKS
JACKSON        CLOUDY    48  38  68 SE6       30.15S
LAMBERTVILLE   CLOUDY    48  41  75 CALM      30.16F
LANSING        CLEAR     45  37  73 CALM      30.16F
LAPEER         FAIR      40  33  75 CALM      30.17F
MASON          CLOUDY    47  39  75 CALM      30.15S
MONROE         CLOUDY    47  42  81 SE5       30.14F
MT. CLEMENS    MOCLDY    42  33  71 E3        30.16F
PONTIAC        CLOUDY    47  31  53 E6        30.14F
PORT HOPE        N/A     36  31  82 CALM      30.18S
PORT HURON     CLOUDY    43  32  65 N3        30.18F
TRI CITIES     MOCLDY    41  35  79 NE6       30.18F
MIDLAND        FAIR      37  33  84 CALM      30.17F
TROY           CLOUDY    47  32  55 E5        30.18F
SAGINAW HB     CLEAR     37  34  87 N5        30.17F WCI  34
$$
MIZ043>046-050>051-056>058-064>065-071>073-077>080-300500-
SOUTHWEST LOWER MICHIGAN

CITY           SKY/WX    TMP DP  RH WIND       PRES   REMARKS
BATTLE CREEK   CLOUDY    48  39  71 E3        30.15S
BENTON HARBOR  CLOUDY    47  41  80 E3        30.14R
BIG RAPIDS     CLEAR     40  33  75 CALM      30.14F
COLDWATER      CLOUDY    49  40  71 SE6       30.15R
FREMONT        FAIR      40  38  93 CALM      30.15S
HOLLAND        CLEAR     43  38  82 CALM      30.16R
GRAND RAPIDS   CLEAR     43  37  79 SE7       30.15S
IONIA          FAIR      41  37  84 E5        30.14R
KALAMAZOO      CLOUDY    49  39  68 E3        30.14S
LUDINGTON      CLEAR     35  35  99 CALM      30.15S
MARSHALL       CLOUDY    48  40  73 CALM      30.14R
MOUNT PLEASANT CLEAR     37  35  92 E3        30.16F
MUSKEGON       CLEAR     38  32  79 CALM      30.16S
SOUTH HAVEN    CLOUDY    46  42  85 CALM      30.14S
$$
MIZ016>042-300500-
NORTHERN LOWER MICHIGAN

CITY           SKY/WX    TMP DP  RH WIND       PRES   REMARKS
ALPENA         CLEAR     34  30  85 CALM      30.19F
BEAVER ISLAND  CLEAR     41  32  71 NE6       30.18F
BELLAIRE       CLEAR     40  35  81 CALM      30.17S
CADILLAC       CLEAR     36  32  85 CALM      30.14S
CHARLEVOIX     CLEAR     38  33  80 CALM      30.19F
FRANKFORT      CLEAR     49  32  53 E5        30.15S
GAYLORD        CLEAR     44  27  51 VRB3      30.16F
GRAYLING       CLEAR     37  30  75 CALM      30.17S
HARBOR SPRINGS CLEAR     43  31  63 NE5       30.17F
HOUGHTON LAKE  CLEAR     40  30  67 E3        30.17S
MANISTEE       CLEAR     37  30  75 CALM      30.15S
OSCODA         CLEAR     33  26  75 CALM      30.18F
PELLSTON       CLEAR     37  30  75 CALM      30.19S
ROGERS CITY    CLEAR     32  29  90 SW3       30.20S
TRAVERSE CITY  CLEAR     41  34  76 CALM      30.15S
$$
MIZ007>008-015-300500-
EASTERN UPPER MICHIGAN

CITY           SKY/WX    TMP DP  RH WIND       PRES   REMARKS
KINROSS          N/A     39  30  70 W3        30.18F
MACKINAC ISLAN CLEAR     38  30  73 NE6       30.20R WCI  33
NEWBERRY       CLEAR     40  30  66 CALM      30.19S
S. S. MARIE    CLEAR     38  31  76 W5        30.17F WCI  34
MUNISING         N/A     33  30  88 S3        30.22R
$$
MIZ004>006-011>014-085-300500-
CENTRAL UPPER MICHIGAN

CITY           SKY/WX    TMP DP  RH WIND       PRES   REMARKS
MANISTIQUE     CLEAR     39  32  75 N7        30.18F WCI  34
ESCANABA       PTCLDY    45  30  57 N3        30.18S
MENOMINEE      CLEAR     43  28  56 CALM      30.16S
SAWYER-GWINN   CLEAR     33  30  88 N6        30.19R WCI  27
$$
MIZ001>003-009>011-084-300500-
WESTERN UPPER MICHIGAN

CITY           SKY/WX    TMP DP  RH WIND       PRES   REMARKS
IRON MOUNTAIN  CLEAR     42  28  57 N3        30.16S
HOUGHTON       PTCLDY    38  28  67 N3        30.21S
COPPER HARBOR    N/A     38  33  82 CALM      30.23S
IRONWOOD         N/A     34  34 100 CALM      30.19S
$$

ABBREVIATIONS USED IN REMARKS
   TC - TEMPERATURE IN CELSIUS
  WCI - WIND CHILL INDEX
   HX - HEAT INDEX
  VSB - VISIBILITY





USA.gov is the U.S. government's official web portal to all federal, state and local government web resources and services.